"Period start","avg(HW err(1)/warn(2) (#))","avg(Visibility (m))","avg(Weather code (#))","avg(Precip intensity (mm/h))","min(HW err(1)/warn(2) (#))","max(HW err(1)/warn(2) (#))","std(HW err(1)/warn(2) (#))","med(HW err(1)/warn(2) (#))","min(Visibility (m))","max(Visibility (m))","std(Visibility (m))","med(Visibility (m))","min(Weather code (#))","max(Weather code (#))","std(Weather code (#))","med(Weather code (#))","min(Precip intensity (mm/h))","max(Precip intensity (mm/h))","std(Precip intensity (mm/h))","med(Precip intensity (mm/h))"
2013-07-18 00:00:00,2,45803,0,0.00,2,2,0,2,37866,50000,4418,47296,0,0,0,0,0.00,0.00,0.00,0.00
2013-07-18 00:10:00,2,45611,0,0.00,2,2,0,2,38287,50000,4236,46245,0,0,0,0,0.00,0.00,0.00,0.00
2013-07-18 00:20:00,2,42710,0,0.00,2,2,0,2,32786,49640,5359,44406,0,0,0,0,0.00,0.00,0.00,0.00
2013-07-18 00:30:00,2,46195,0,0.00,2,2,0,2,34711,50000,5568,49257,0,0,0,0,0.00,0.00,0.00,0.00
2013-07-18 00:40:00,2,45259,0,0.00,2,2,0,2,38123,50000,3883,45665,0,0,0,0,0.00,0.00,0.00,0.00
2013-07-18 00:50:00,2,44816,0,0.00,2,2,0,2,34230,50000,5200,46010,0,0,0,0,0.00,0.00,0.00,0.00
2013-07-18 01:00:00,2,44055,0,0.00,2,2,0,2,29140,50000,7382,47012,0,0,0,0,0.00,0.00,0.00,0.00
2013-07-18 01:10:00,2,44058,0,0.00,2,2,0,2,37961,50000,3974,43688,0,0,0,0,0.00,0.00,0.00,0.00
2013-07-18 01:20:00,2,46113,0,0.00,2,2,0,2,40414,50000,3001,46237,0,0,0,0,0.00,0.00,0.00,0.00
2013-07-18 01:30:00,2,47265,0,0.00,2,2,0,2,37152,50000,4234,50000,0,0,0,0,0.00,0.00,0.00,0.00
2013-07-18 01:40:00,2,46789,0,0.00,2,2,0,2,37474,50000,4965,50000,0,0,0,0,0.00,0.00,0.00,0.00
2013-07-18 01:50:00,2,41770,0,0.00,2,2,0,2,32755,50000,5471,43236,0,0,0,0,0.00,0.00,0.00,0.00
2013-07-18 02:00:00,2,40027,0,0.00,2,2,0,2,31720,47563,5325,40682,0,0,0,0,0.00,0.00,0.00,0.00
2013-07-18 02:10:00,2,42284,0,0.00,2,2,0,2,31584,49097,6433,43948,0,0,0,0,0.00,0.00,0.00,0.00
2013-07-18 02:20:00,2,46853,0,0.00,2,2,0,2,37416,50000,3706,48054,0,0,0,0,0.00,0.00,0.00,0.00
2013-07-18 02:30:00,2,44769,0,0.00,2,2,0,2,36691,50000,4925,46212,0,0,0,0,0.00,0.00,0.00,0.00
2013-07-18 02:40:00,2,48582,0,0.00,2,2,0,2,44655,50000,1939,49641,0,0,0,0,0.00,0.00,0.00,0.00
2013-07-18 02:50:00,2,49899,0,0.00,2,2,0,2,49286,50000,223,50000,0,0,0,0,0.00,0.00,0.00,0.00
2013-07-18 03:00:00,2,47706,0,0.00,2,2,0,2,38597,50000,3545,49882,0,0,0,0,0.00,0.00,0.00,0.00
2013-07-18 03:10:00,2,45807,0,0.00,2,2,0,2,26961,50000,7116,49834,0,0,0,0,0.00,0.00,0.00,0.00
2013-07-18 03:20:00,2,45133,0,0.00,2,2,0,2,36544,50000,5427,47792,0,0,0,0,0.00,0.00,0.00,0.00
2013-07-18 03:30:00,2,45567,0,0.00,2,2,0,2,37711,50000,4067,44770,0,0,0,0,0.00,0.00,0.00,0.00
2013-07-18 03:40:00,2,48028,0,0.00,2,2,0,2,38546,50000,3400,49639,0,0,0,0,0.00,0.00,0.00,0.00
2013-07-18 03:50:00,2,40801,0,0.00,2,2,0,2,23124,50000,9154,43276,0,0,0,0,0.00,0.00,0.00,0.00
2013-07-18 04:00:00,2,45580,0,0.00,2,2,0,2,39918,50000,3090,44452,0,0,0,0,0.00,0.00,0.00,0.00
2013-07-18 04:10:00,2,44270,0,0.00,2,2,0,2,28663,50000,7819,49036,0,0,0,0,0.00,0.00,0.00,0.00
2013-07-18 04:20:00,2,47460,0,0.00,2,2,0,2,44990,50000,2188,47030,0,0,0,0,0.00,0.00,0.00,0.00
2013-07-18 04:30:00,2,43728,0,0.00,2,2,0,2,34882,49483,4947,44404,0,0,0,0,0.00,0.00,0.00,0.00
2013-07-18 04:40:00,2,46311,0,0.00,2,2,0,2,38098,50000,4391,48184,0,0,0,0,0.00,0.00,0.00,0.00
2013-07-18 04:50:00,2,45045,0,0.00,2,2,0,2,33493,50000,4766,46236,0,0,0,0,0.00,0.00,0.00,0.00
2013-07-18 05:00:00,2,43422,0,0.00,2,2,0,2,38135,50000,3945,43015,0,0,0,0,0.00,0.00,0.00,0.00
2013-07-18 05:10:00,2,48115,0,0.00,2,2,0,2,43299,50000,2379,48978,0,0,0,0,0.00,0.00,0.00,0.00
2013-07-18 05:20:00,2,46206,0,0.00,2,2,0,2,36825,50000,3960,47125,0,0,0,0,0.00,0.00,0.00,0.00
2013-07-18 05:30:00,2,47733,0,0.00,2,2,0,2,42966,50000,2692,49258,0,0,0,0,0.00,0.00,0.00,0.00
2013-07-18 05:40:00,2,48910,0,0.00,2,2,0,2,45428,50000,1710,50000,0,0,0,0,0.00,0.00,0.00,0.00
2013-07-18 05:50:00,2,46174,0,0.00,2,2,0,2,39872,50000,3499,46540,0,0,0,0,0.00,0.00,0.00,0.00
2013-07-18 06:00:00,2,48815,0,0.00,2,2,0,2,45108,50000,1849,50000,0,0,0,0,0.00,0.00,0.00,0.00
2013-07-18 06:10:00,2,44346,0,0.00,2,2,0,2,36206,50000,4225,44179,0,0,0,0,0.00,0.00,0.00,0.00
2013-07-18 06:20:00,2,46567,0,0.00,2,2,0,2,34256,50000,4703,48413,0,0,0,0,0.00,0.00,0.00,0.00
2013-07-18 06:30:00,2,47362,0,0.00,2,2,0,2,39917,50000,3527,49954,0,0,0,0,0.00,0.00,0.00,0.00
2013-07-18 06:40:00,2,47419,0,0.00,2,2,0,2,36715,50000,4125,49738,0,0,0,0,0.00,0.00,0.00,0.00
2013-07-18 06:50:00,2,46908,0,0.00,2,2,0,2,40611,50000,2991,47068,0,0,0,0,0.00,0.00,0.00,0.00
2013-07-18 07:00:00,2,45616,0,0.00,2,2,0,2,37233,50000,4202,47036,0,0,0,0,0.00,0.00,0.00,0.00
2013-07-18 07:10:00,2,42855,0,0.00,2,2,0,2,22893,50000,9257,48130,0,0,0,0,0.00,0.00,0.00,0.00
2013-07-18 07:20:00,2,40251,0,0.00,2,2,0,2,25425,50000,7673,42355,0,0,0,0,0.00,0.00,0.00,0.00
2013-07-18 07:30:00,2,43830,0,0.00,2,2,0,2,29708,50000,7237,47296,0,0,0,0,0.00,0.00,0.00,0.00
2013-07-18 07:40:00,2,45864,0,0.00,2,2,0,2,39954,50000,3832,47359,0,0,0,0,0.00,0.00,0.00,0.00
2013-07-18 07:50:00,2,47328,0,0.00,2,2,0,2,40749,50000,3592,50000,0,0,0,0,0.00,0.00,0.00,0.00
2013-07-18 08:00:00,2,48970,0,0.00,2,2,0,2,45446,50000,1381,49514,0,0,0,0,0.00,0.00,0.00,0.00
2013-07-18 08:10:00,2,38305,0,0.00,2,2,0,2,15911,50000,10116,40121,0,0,0,0,0.00,0.00,0.00,0.00
2013-07-18 08:20:00,2,43751,0,0.00,2,2,0,2,32566,50000,6247,45204,0,0,0,0,0.00,0.00,0.00,0.00
2013-07-18 08:30:00,2,43639,0,0.00,2,2,0,2,26484,50000,7838,46868,0,0,0,0,0.00,0.00,0.00,0.00
2013-07-18 08:40:00,2,47534,0,0.00,2,2,0,2,44530,50000,1975,47375,0,0,0,0,0.00,0.00,0.00,0.00
2013-07-18 08:50:00,2,42994,0,0.00,2,2,0,2,28624,50000,7079,46128,0,0,0,0,0.00,0.00,0.00,0.00
2013-07-18 09:00:00,2,45534,0,0.00,2,2,0,2,37222,50000,5263,49246,0,0,0,0,0.00,0.00,0.00,0.00
2013-07-18 09:10:00,2,48512,0,0.00,2,2,0,2,41048,50000,2737,50000,0,0,0,0,0.00,0.00,0.00,0.00
2013-07-18 09:20:00,2,43829,0,0.00,2,2,0,2,32573,50000,6672,46694,0,0,0,0,0.00,0.00,0.00,0.00
2013-07-18 09:30:00,2,49040,0,0.00,2,2,0,2,45525,50000,1466,50000,0,0,0,0,0.00,0.00,0.00,0.00
2013-07-18 09:40:00,2,47529,0,0.00,2,2,0,2,42911,50000,2991,49512,0,0,0,0,0.00,0.00,0.00,0.00
2013-07-18 09:50:00,2,47776,0,0.00,2,2,0,2,38049,50000,3478,49194,0,0,0,0,0.00,0.00,0.00,0.00
2013-07-18 10:00:00,2,47190,0,0.00,2,2,0,2,40909,50000,3248,48722,0,0,0,0,0.00,0.00,0.00,0.00
2013-07-18 10:10:00,2,48638,0,0.00,2,2,0,2,45183,50000,1691,49724,0,0,0,0,0.00,0.00,0.00,0.00
2013-07-18 10:20:00,2,49230,0,0.00,2,2,0,2,45581,50000,1561,50000,0,0,0,0,0.00,0.00,0.00,0.00
2013-07-18 10:30:00,2,48621,0,0.00,2,2,0,2,36499,50000,4042,50000,0,0,0,0,0.00,0.00,0.00,0.00
2013-07-18 10:40:00,2,48274,0,0.00,2,2,0,2,43634,50000,2297,49992,0,0,0,0,0.00,0.00,0.00,0.00
2013-07-18 10:50:00,2,42937,0,0.00,2,2,0,2,23857,50000,8759,47019,0,0,0,0,0.00,0.00,0.00,0.00
2013-07-18 11:00:00,2,49399,0,0.00,2,2,0,2,46067,50000,1272,50000,0,0,0,0,0.00,0.00,0.00,0.00
2013-07-18 11:10:00,2,48083,0,0.00,2,2,0,2,42039,50000,2746,50000,0,0,0,0,0.00,0.00,0.00,0.00
2013-07-18 11:20:00,2,49305,0,0.00,2,2,0,2,46015,50000,1250,50000,0,0,0,0,0.00,0.00,0.00,0.00
2013-07-18 11:30:00,2,49942,0,0.00,2,2,0,2,49425,50000,172,50000,0,0,0,0,0.00,0.00,0.00,0.00
2013-07-18 11:40:00,2,49398,0,0.00,2,2,0,2,47044,50000,1161,50000,0,0,0,0,0.00,0.00,0.00,0.00
2013-07-18 11:50:00,2,47364,0,0.00,2,2,0,2,40620,50000,3106,49146,0,0,0,0,0.00,0.00,0.00,0.00
2013-07-18 12:00:00,2,50000,0,0.00,2,2,0,2,50000,50000,0,50000,0,0,0,0,0.00,0.00,0.00,0.00
2013-07-18 12:10:00,2,49935,0,0.00,2,2,0,2,49354,50000,194,50000,0,0,0,0,0.00,0.00,0.00,0.00
2013-07-18 12:20:00,2,49668,0,0.00,2,2,0,2,46675,50000,998,50000,0,0,0,0,0.00,0.00,0.00,0.00
2013-07-18 12:30:00,2,49018,0,0.00,2,2,0,2,42352,50000,2282,50000,0,0,0,0,0.00,0.00,0.00,0.00
2013-07-18 12:40:00,2,49908,0,0.00,2,2,0,2,49080,50000,276,50000,0,0,0,0,0.00,0.00,0.00,0.00
2013-07-18 12:50:00,2,50000,0,0.00,2,2,0,2,50000,50000,0,50000,0,0,0,0,0.00,0.00,0.00,0.00
2013-07-18 13:00:00,2,49959,0,0.00,2,2,0,2,49594,50000,122,50000,0,0,0,0,0.00,0.00,0.00,0.00
2013-07-18 13:10:00,2,49406,0,0.00,2,2,0,2,44055,50000,1784,50000,0,0,0,0,0.00,0.00,0.00,0.00
2013-07-18 13:20:00,2,49969,0,0.00,2,2,0,2,49690,50000,93,50000,0,0,0,0,0.00,0.00,0.00,0.00
2013-07-18 13:30:00,2,50000,0,0.00,2,2,0,2,50000,50000,0,50000,0,0,0,0,0.00,0.00,0.00,0.00
2013-07-18 13:40:00,2,50000,0,0.00,2,2,0,2,50000,50000,0,50000,0,0,0,0,0.00,0.00,0.00,0.00
2013-07-18 13:50:00,2,50000,0,0.00,2,2,0,2,50000,50000,0,50000,0,0,0,0,0.00,0.00,0.00,0.00
2013-07-18 14:00:00,2,50000,0,0.00,2,2,0,2,50000,50000,0,50000,0,0,0,0,0.00,0.00,0.00,0.00
2013-07-18 14:10:00,2,50000,0,0.00,2,2,0,2,50000,50000,0,50000,0,0,0,0,0.00,0.00,0.00,0.00
2013-07-18 14:20:00,2,50000,0,0.00,2,2,0,2,50000,50000,0,50000,0,0,0,0,0.00,0.00,0.00,0.00
2013-07-18 14:30:00,2,50000,0,0.00,2,2,0,2,50000,50000,0,50000,0,0,0,0,0.00,0.00,0.00,0.00
2013-07-18 14:40:00,2,50000,0,0.00,2,2,0,2,50000,50000,0,50000,0,0,0,0,0.00,0.00,0.00,0.00
2013-07-18 14:50:00,2,48007,0,0.00,2,2,0,2,43664,50000,2216,48996,0,0,0,0,0.00,0.00,0.00,0.00
2013-07-18 15:00:00,2,40765,0,0.00,2,2,0,2,32467,49470,6299,39980,0,0,0,0,0.00,0.00,0.00,0.00
2013-07-18 15:10:00,2,14842,0,0.00,2,2,0,2,3274,31857,9105,11754,0,0,0,0,0.00,0.00,0.00,0.00
2013-07-18 15:20:00,2,1446,10,0.00,2,2,0,2,626,2275,535,1312,10,10,0,10,0.00,0.00,0.00,0.00
2013-07-18 15:30:00,2,509,26,0.00,2,2,0,2,278,1135,264,382,10,34,11,34,0.00,0.00,0.00,0.00
2013-07-18 15:40:00,2,279,34,0.00,2,2,0,2,222,371,45,276,34,34,0,34,0.00,0.00,0.00,0.00
2013-07-18 15:50:00,2,367,34,0.00,2,2,0,2,251,610,110,345,34,34,0,34,0.00,0.00,0.00,0.00
2013-07-18 16:00:00,2,368,34,0.00,2,2,0,2,313,427,39,360,34,34,0,34,0.00,0.00,0.00,0.00
2013-07-18 16:10:00,2,219,34,0.00,2,2,0,2,183,333,50,196,34,34,0,34,0.00,0.00,0.00,0.00
2013-07-18 16:20:00,2,194,34,0.00,2,2,0,2,181,212,9,189,34,34,0,34,0.00,0.00,0.00,0.00
2013-07-18 16:30:00,2,288,34,0.00,2,2,0,2,225,379,48,294,34,34,0,34,0.00,0.00,0.00,0.00
2013-07-18 16:40:00,2,154,34,0.00,2,2,0,2,139,187,14,148,34,34,0,34,0.00,0.00,0.00,0.00
2013-07-18 16:50:00,2,352,34,0.00,2,2,0,2,150,590,158,407,34,34,0,34,0.00,0.00,0.00,0.00
2013-07-18 17:00:00,2,529,33,0.00,2,2,0,2,223,885,193,544,32,34,1,33,0.00,0.00,0.00,0.00
2013-07-18 17:10:00,2,184,32,0.00,2,2,0,2,173,197,8,184,32,33,0,32,0.00,0.00,0.00,0.00
2013-07-18 17:20:00,2,814,32,0.00,2,2,0,2,213,1265,379,951,31,33,1,32,0.00,0.00,0.00,0.00
2013-07-18 17:30:00,2,479,31,0.00,2,2,0,2,308,791,174,397,31,31,0,31,0.00,0.00,0.00,0.00
2013-07-18 17:40:00,2,432,31,0.00,2,2,0,2,251,972,229,318,31,31,0,31,0.00,0.00,0.00,0.00
2013-07-18 17:50:00,2,582,33,0.00,2,2,0,2,242,1394,437,336,31,33,1,33,0.00,0.00,0.00,0.00
2013-07-18 18:00:00,2,1560,30,0.00,2,2,0,2,442,3783,1053,1292,20,33,5,32,0.00,0.00,0.00,0.00
2013-07-18 18:10:00,2,898,32,0.00,2,2,0,2,257,1348,304,864,32,32,0,32,0.00,0.00,0.00,0.00
2013-07-18 18:20:00,2,2763,27,0.00,2,2,0,2,1163,5470,1253,2564,20,32,5,30,0.00,0.00,0.00,0.00
2013-07-18 18:30:00,2,4882,24,0.00,2,2,0,2,283,18444,6315,396,20,32,5,20,0.00,0.00,0.00,0.00
2013-07-18 18:40:00,2,3594,32,0.00,2,2,0,2,364,17626,4991,1396,32,32,0,32,0.00,0.00,0.00,0.00
2013-07-18 18:50:00,2,229,34,0.00,2,2,0,2,191,356,49,208,32,34,1,34,0.00,0.00,0.00,0.00
2013-07-18 19:00:00,2,396,34,0.00,2,2,0,2,284,645,106,388,34,34,0,34,0.00,0.00,0.00,0.00
2013-07-18 19:10:00,2,9407,32,0.00,2,2,0,2,966,16704,4134,10044,31,34,1,31,0.00,0.00,0.00,0.00
2013-07-18 19:20:00,2,6042,31,0.00,2,2,0,2,977,11893,4015,4526,31,31,0,31,0.00,0.00,0.00,0.00
2013-07-18 19:30:00,2,3880,31,0.00,2,2,0,2,749,10881,3024,3144,31,31,0,31,0.00,0.00,0.00,0.00
2013-07-18 19:40:00,2,694,31,0.00,2,2,0,2,327,1358,297,660,31,31,0,31,0.00,0.00,0.00,0.00
2013-07-18 19:50:00,2,1050,31,0.00,2,2,0,2,591,2158,450,967,31,31,0,31,0.00,0.00,0.00,0.00
2013-07-18 20:00:00,2,1361,29,0.00,0,2,1,2,905,2929,690,1054,20,31,4,31,0.00,0.00,0.00,0.00
2013-07-18 20:10:00,2,7652,20,0.00,2,2,0,2,2394,15321,4185,6112,20,20,0,20,0.00,0.00,0.00,0.00
2013-07-18 20:20:00,2,20377,20,0.00,0,2,1,2,13525,28371,5053,20444,20,20,0,20,0.00,0.00,0.00,0.00
2013-07-18 20:30:00,2,21258,20,0.00,0,2,1,2,17937,26374,2429,20388,20,20,0,20,0.00,0.00,0.00,0.00
2013-07-18 20:40:00,2,25578,20,0.00,2,2,0,2,21281,33062,3646,24143,20,20,0,20,0.00,0.00,0.00,0.00
2013-07-18 20:50:00,2,30722,20,0.00,0,2,1,2,23746,39679,5108,30620,20,20,0,20,0.00,0.00,0.00,0.00
2013-07-18 21:00:00,0,46416,14,0.00,0,2,1,0,39048,50000,3623,47352,0,20,9,20,0.00,0.00,0.00,0.00
2013-07-18 21:10:00,0,48036,0,0.00,0,0,0,0,42974,50000,2586,49603,0,0,0,0,0.00,0.00,0.00,0.00
2013-07-18 21:20:00,0,49969,0,0.00,0,0,0,0,49686,50000,94,50000,0,0,0,0,0.00,0.00,0.00,0.00
2013-07-18 21:30:00,0,49573,0,0.00,0,0,0,0,45727,50000,1282,50000,0,0,0,0,0.00,0.00,0.00,0.00
2013-07-18 21:40:00,0,48620,0,0.00,0,0,0,0,45276,50000,1686,49510,0,0,0,0,0.00,0.00,0.00,0.00
2013-07-18 21:50:00,0,47047,0,0.00,0,0,0,0,41254,50000,2796,47918,0,0,0,0,0.00,0.00,0.00,0.00
2013-07-18 22:00:00,0,48082,0,0.00,0,0,0,0,41382,50000,2888,49816,0,0,0,0,0.00,0.00,0.00,0.00
2013-07-18 22:10:00,0,48326,0,0.00,0,0,0,0,41416,50000,2936,50000,0,0,0,0,0.00,0.00,0.00,0.00
2013-07-18 22:20:00,0,49616,0,0.00,0,0,0,0,48280,50000,613,50000,0,0,0,0,0.00,0.00,0.00,0.00
2013-07-18 22:30:00,0,48331,0,0.00,0,0,0,0,41814,50000,2797,50000,0,0,0,0,0.00,0.00,0.00,0.00
2013-07-18 22:40:00,0,49831,0,0.00,0,0,0,0,48456,50000,460,50000,0,0,0,0,0.00,0.00,0.00,0.00
2013-07-18 22:50:00,0,46717,0,0.00,0,0,0,0,38893,50000,3468,46946,0,0,0,0,0.00,0.00,0.00,0.00
2013-07-18 23:00:00,0,45955,0,0.00,0,0,0,0,35002,50000,5529,49436,0,0,0,0,0.00,0.00,0.00,0.00
2013-07-18 23:10:00,0,49646,0,0.00,0,0,0,0,46871,50000,933,50000,0,0,0,0,0.00,0.00,0.00,0.00
2013-07-18 23:20:00,0,48325,0,0.00,0,0,0,0,42361,50000,2921,50000,0,0,0,0,0.00,0.00,0.00,0.00
2013-07-18 23:30:00,0,49312,0,0.00,0,0,0,0,47132,50000,1017,50000,0,0,0,0,0.00,0.00,0.00,0.00
2013-07-18 23:40:00,0,47827,0,0.00,0,0,0,0,42954,50000,2345,49150,0,0,0,0,0.00,0.00,0.00,0.00
2013-07-18 23:50:00,0,47768,0,0.00,0,0,0,0,42060,50000,2644,48899,0,0,0,0,0.00,0.00,0.00,0.00
